Tracking 31027 objects as of 19-Jul-2025
HD Live streaming from Space Station
objects crossing your sky now

COSMOS 886 DEB

Track COSMOS 886 DEB now!
10-day predictions


NORAD ID: 9816
Int'l Code: 1976-126AC
Perigee: 500.3 km
Apogee: 1,368.8 km
Inclination: 65.8 °
Period: 103.6 minutes
Semi major axis: 7305 km
RCS: 0.0337 m2 (small)
Launch date: December 27, 1976
Source: Commonwealth of Independent States (former USSR) (CIS)
Launch site: TYURATAM MISSILE AND SPACE COMPLEX (TTMTR)

Note: This is SATELLITE DEBRIS
Your satellite tracking list
ONEWEB-0142
Track 1 satellite(s)




NASA's NSSDC Master Catalog

Two Line Element Set (TLE):
1 09816U 76126AC  25199.40231086  .00002245  00000-0  43627-3 0  9994
2 09816  65.7938  77.3908 0594428 197.7704 160.1765 13.90344308360768
Source of the keplerian elements: AFSPC